Strona główna
METAR-TAF:

METAR-TAF

Lotnisko :

Garrison Municipal Airport

Garrison, Dakota Północna, Stany Zjednoczone

Szerokość geograficzna: 47-38-45N, Długość geograficzna: 101-26-22W, wysokość: 582 m

Aktualna obserwacja pogody

Raport powstał 43 minut temu, godzina 05:52 UTC
Wiatr 3 kt od zachodnio-północny zachód
Temperatura 0°C
Wilgotność 93%
Ciśnienie 1016 hPa

METAR: KN60 280552Z AUTO 30003KT 00/M01 A2999 RMK AO1 SLP177 P0001 60001 T00001006 10011 21011 400441100 56005

czas: 00:35 (06:35 UTC)


TAF: brakujący

Obserwacja i prognoza pogody dla ponad 4000 lotnisk (raport METAR i TAF).

Dostępne stacje oznaczono żółtymi i czerwonymi punktami na mapie.

Najedź kursorem aby zobaczyć nazwę stacji.

Kliknij aby zobaczyć obserwacje i prognozy pogody.

Aby zmienić mapę: kliknij na zielony przycisk z czarnym krzyżykiem, aby powiększyć; na zielony przycisk z myślnikiem, aby pomniejszyć; na zielone strzałki, aby przejść do map sąsiednich.


METAR-TAF: